Time,TemperatureF,DewpointF,PressureIn,WindDirection,WindDirectionDegrees,WindSpeedMPH,WindSpeedGustMPH,Humidity,HourlyPrecipIn,Conditions,Clouds,dailyrainin,SolarRadiationWatts/m^2,SoftwareType,DateUTC
2013-11-28 00:01:00,20.7,15.2,30.36,West,279,3.0,4.0,79,0.00,,,0.00,0,Wunderground v.1.15,2013-11-28 05:01:00,
2013-11-28 00:04:00,20.7,15.2,30.36,West,281,3.0,4.0,79,0.00,,,0.00,0,Wunderground v.1.15,2013-11-28 05:04:00,
2013-11-28 00:06:00,20.6,15.1,30.36,WNW,292,3.0,4.0,79,0.00,,,0.00,0,Wunderground v.1.15,2013-11-28 05:06:00,
2013-11-28 00:08:00,20.6,15.1,30.36,WNW,296,3.0,4.0,79,0.00,,,0.00,0,Wunderground v.1.15,2013-11-28 05:08:00,
2013-11-28 00:14:00,20.6,15.1,30.37,West,280,3.0,4.0,79,0.00,,,0.00,0,Wunderground v.1.15,2013-11-28 05:14:00,
2013-11-28 00:16:00,20.6,15.1,30.37,WNW,284,3.0,4.0,79,0.00,,,0.00,0,Wunderground v.1.15,2013-11-28 05:16:00,
2013-11-28 00:22:00,20.6,15.1,30.37,WNW,291,3.0,4.0,79,0.00,,,0.00,0,Wunderground v.1.15,2013-11-28 05:22:00,
2013-11-28 00:24:00,20.6,15.1,30.37,WNW,290,3.0,4.0,79,0.00,,,0.00,0,Wunderground v.1.15,2013-11-28 05:24:00,
2013-11-28 00:30:00,20.5,15.0,30.37,WNW,289,3.0,4.0,79,0.00,,,0.00,0,Wunderground v.1.15,2013-11-28 05:30:00,
2013-11-28 00:36:00,20.4,14.9,30.37,West,276,3.0,3.0,79,0.00,,,0.00,0,Wunderground v.1.15,2013-11-28 05:36:00,
2013-11-28 00:42:00,20.4,14.9,30.36,West,277,3.0,3.0,79,0.00,,,0.00,0,Wunderground v.1.15,2013-11-28 05:42:00,
2013-11-28 00:48:00,20.3,14.8,30.36,West,277,3.0,3.0,79,0.00,,,0.00,0,Wunderground v.1.15,2013-11-28 05:48:00,
2013-11-28 00:54:00,20.2,14.7,30.36,West,277,2.0,3.0,79,0.00,,,0.00,0,Wunderground v.1.15,2013-11-28 05:54:00,
2013-11-28 01:02:00,20.1,14.9,30.37,West,280,2.0,2.0,80,0.00,,,0.00,0,Wunderground v.1.15,2013-11-28 06:02:00,
2013-11-28 01:08:00,20.0,14.8,30.36,West,279,2.0,2.0,80,0.00,,,0.00,0,Wunderground v.1.15,2013-11-28 06:08:00,
2013-11-28 01:14:00,19.9,14.4,30.36,West,275,2.0,2.0,79,0.00,,,0.00,0,Wunderground v.1.15,2013-11-28 06:14:00,
2013-11-28 01:20:00,19.8,14.6,30.37,West,278,1.0,2.0,80,0.00,,,0.00,0,Wunderground v.1.15,2013-11-28 06:20:00,
2013-11-28 01:26:00,19.8,14.3,30.37,West,278,1.0,2.0,79,0.00,,,0.00,0,Wunderground v.1.15,2013-11-28 06:26:00,
2013-11-28 01:32:00,19.7,14.5,30.37,West,278,1.0,1.0,80,0.00,,,0.00,0,Wunderground v.1.15,2013-11-28 06:32:00,
2013-11-28 01:38:00,19.5,14.3,30.36,West,278,0.0,1.0,80,0.00,,,0.00,0,Wunderground v.1.15,2013-11-28 06:38:00,
2013-11-28 01:43:00,19.5,14.3,30.36,West,278,0.0,0.0,80,0.00,,,0.00,0,Wunderground v.1.15,2013-11-28 06:43:00,
2013-11-28 01:50:00,19.4,14.5,30.36,West,278,0.0,2.0,81,0.00,,,0.00,0,Wunderground v.1.15,2013-11-28 06:50:00,
2013-11-28 01:55:00,19.2,14.3,30.36,West,278,1.0,1.0,81,0.00,,,0.00,0,Wunderground v.1.15,2013-11-28 06:55:00,
2013-11-28 02:02:00,18.4,13.8,30.36,West,278,1.0,1.0,82,0.00,,,0.00,0,Wunderground v.1.15,2013-11-28 07:02:00,
2013-11-28 02:07:00,17.9,13.9,30.37,West,278,0.0,1.0,84,0.00,,,0.00,0,Wunderground v.1.15,2013-11-28 07:07:00,
2013-11-28 02:14:00,17.9,14.2,30.38,West,278,1.0,2.0,85,0.00,,,0.00,0,Wunderground v.1.15,2013-11-28 07:14:00,
2013-11-28 02:20:00,18.1,14.4,30.38,West,273,2.0,2.0,85,0.00,,,0.00,0,Wunderground v.1.15,2013-11-28 07:20:00,
2013-11-28 02:26:00,18.3,14.3,30.38,West,279,2.0,3.0,84,0.00,,,0.00,0,Wunderground v.1.15,2013-11-28 07:26:00,
2013-11-28 02:32:00,18.4,14.4,30.38,West,279,2.0,2.0,84,0.00,,,0.00,0,Wunderground v.1.15,2013-11-28 07:32:00,
2013-11-28 02:38:00,18.5,14.5,30.38,West,279,1.0,2.0,84,0.00,,,0.00,0,Wunderground v.1.15,2013-11-28 07:38:00,
2013-11-28 02:44:00,18.5,14.2,30.38,West,279,1.0,3.0,83,0.00,,,0.00,0,Wunderground v.1.15,2013-11-28 07:44:00,
2013-11-28 02:50:00,18.5,14.2,30.39,West,279,1.0,3.0,83,0.00,,,0.00,0,Wunderground v.1.15,2013-11-28 07:50:00,
2013-11-28 02:56:00,18.5,14.2,30.38,West,279,1.0,2.0,83,0.00,,,0.00,0,Wunderground v.1.15,2013-11-28 07:56:00,
2013-11-28 03:02:00,18.5,14.2,30.39,West,279,0.0,0.0,83,0.00,,,0.00,0,Wunderground v.1.15,2013-11-28 08:02:00,
2013-11-28 03:08:00,18.4,14.1,30.40,West,279,0.0,0.0,83,0.00,,,0.00,0,Wunderground v.1.15,2013-11-28 08:08:00,
2013-11-28 03:14:00,18.2,14.2,30.40,West,279,0.0,0.0,84,0.00,,,0.00,0,Wunderground v.1.15,2013-11-28 08:14:00,
2013-11-28 03:20:00,18.0,14.0,30.39,West,279,0.0,0.0,84,0.00,,,0.00,0,Wunderground v.1.15,2013-11-28 08:20:00,
2013-11-28 03:26:00,18.0,13.7,30.39,West,279,0.0,0.0,83,0.00,,,0.00,0,Wunderground v.1.15,2013-11-28 08:26:00,
2013-11-28 03:32:00,17.4,13.4,30.39,West,279,0.0,0.0,84,0.00,,,0.00,0,Wunderground v.1.15,2013-11-28 08:32:00,
2013-11-28 03:38:00,16.8,12.8,30.39,West,279,1.0,1.0,84,0.00,,,0.00,0,Wunderground v.1.15,2013-11-28 08:38:00,
2013-11-28 03:44:00,16.5,12.8,30.39,West,279,1.0,1.0,85,0.00,,,0.00,0,Wunderground v.1.15,2013-11-28 08:44:00,
2013-11-28 03:50:00,16.4,12.9,30.39,West,279,0.0,1.0,86,0.00,,,0.00,0,Wunderground v.1.15,2013-11-28 08:50:00,
2013-11-28 03:56:00,16.3,13.1,30.39,West,279,0.0,0.0,87,0.00,,,0.00,0,Wunderground v.1.15,2013-11-28 08:56:00,
2013-11-28 04:02:00,16.2,13.0,30.39,West,279,0.0,0.0,87,0.00,,,0.00,0,Wunderground v.1.15,2013-11-28 09:02:00,
2013-11-28 04:08:00,16.1,12.9,30.38,West,279,0.0,1.0,87,0.00,,,0.00,0,Wunderground v.1.15,2013-11-28 09:08:00,
2013-11-28 04:14:00,16.1,12.9,30.39,West,279,1.0,2.0,87,0.00,,,0.00,0,Wunderground v.1.15,2013-11-28 09:14:00,
2013-11-28 04:20:00,16.3,13.4,30.39,West,279,1.0,2.0,88,0.00,,,0.00,0,Wunderground v.1.15,2013-11-28 09:20:00,
2013-11-28 04:26:00,16.5,13.6,30.40,West,279,1.0,1.0,88,0.00,,,0.00,0,Wunderground v.1.15,2013-11-28 09:26:00,
2013-11-28 04:32:00,16.6,13.7,30.40,West,279,1.0,1.0,88,0.00,,,0.00,0,Wunderground v.1.15,2013-11-28 09:32:00,
2013-11-28 04:38:00,16.6,13.7,30.40,West,279,1.0,2.0,88,0.00,,,0.00,0,Wunderground v.1.15,2013-11-28 09:38:00,
2013-11-28 04:44:00,16.5,13.6,30.40,West,278,1.0,2.0,88,0.00,,,0.00,0,Wunderground v.1.15,2013-11-28 09:44:00,
2013-11-28 04:50:00,16.4,13.2,30.40,West,278,1.0,2.0,87,0.00,,,0.00,0,Wunderground v.1.15,2013-11-28 09:50:00,
2013-11-28 04:56:00,16.2,13.0,30.41,West,278,0.0,1.0,87,0.00,,,0.00,0,Wunderground v.1.15,2013-11-28 09:56:00,
2013-11-28 05:01:00,16.1,12.9,30.41,West,278,0.0,0.0,87,0.00,,,0.00,0,Wunderground v.1.15,2013-11-28 10:01:00,
2013-11-28 05:08:00,15.9,12.7,30.41,West,278,0.0,0.0,87,0.00,,,0.00,0,Wunderground v.1.15,2013-11-28 10:08:00,
2013-11-28 05:13:00,15.9,13.0,30.42,West,278,0.0,0.0,88,0.00,,,0.00,0,Wunderground v.1.15,2013-11-28 10:13:00,
2013-11-28 05:20:00,15.7,12.8,30.42,West,278,0.0,0.0,88,0.00,,,0.00,0,Wunderground v.1.15,2013-11-28 10:20:00,
2013-11-28 05:26:00,15.7,12.8,30.42,West,278,0.0,0.0,88,0.00,,,0.00,0,Wunderground v.1.15,2013-11-28 10:26:00,
2013-11-28 05:32:00,15.7,12.8,30.42,West,278,0.0,0.0,88,0.00,,,0.00,0,Wunderground v.1.15,2013-11-28 10:32:00,
2013-11-28 05:38:00,15.8,12.9,30.43,West,278,0.0,0.0,88,0.00,,,0.00,0,Wunderground v.1.15,2013-11-28 10:38:00,
2013-11-28 05:44:00,16.0,13.1,30.43,West,278,0.0,0.0,88,0.00,,,0.00,0,Wunderground v.1.15,2013-11-28 10:44:00,
2013-11-28 05:50:00,15.8,12.9,30.43,West,278,0.0,1.0,88,0.00,,,0.00,0,Wunderground v.1.15,2013-11-28 10:50:00,
2013-11-28 05:56:00,15.6,12.7,30.43,West,278,0.0,1.0,88,0.00,,,0.00,0,Wunderground v.1.15,2013-11-28 10:56:00,
2013-11-28 06:02:00,15.6,12.7,30.43,West,278,1.0,1.0,88,0.00,,,0.00,0,Wunderground v.1.15,2013-11-28 11:02:00,
2013-11-28 06:08:00,15.6,12.7,30.43,West,267,1.0,2.0,88,0.00,,,0.00,0,Wunderground v.1.15,2013-11-28 11:08:00,
2013-11-28 06:14:00,15.7,12.8,30.43,West,265,1.0,2.0,88,0.00,,,0.00,0,Wunderground v.1.15,2013-11-28 11:14:00,
2013-11-28 06:20:00,15.8,12.9,30.43,West,263,2.0,2.0,88,0.00,,,0.00,0,Wunderground v.1.15,2013-11-28 11:20:00,
2013-11-28 06:26:00,16.0,13.1,30.44,SW,236,2.0,4.0,88,0.00,,,0.00,0,Wunderground v.1.15,2013-11-28 11:26:00,
2013-11-28 06:32:00,16.2,13.3,30.44,SW,232,3.0,3.0,88,0.00,,,0.00,0,Wunderground v.1.15,2013-11-28 11:32:00,
2013-11-28 06:38:00,16.4,13.5,30.44,SW,228,2.0,3.0,88,0.00,,,0.00,0,Wunderground v.1.15,2013-11-28 11:38:00,
2013-11-28 06:44:00,16.5,13.6,30.45,SW,228,1.0,3.0,88,0.00,,,0.00,0,Wunderground v.1.15,2013-11-28 11:44:00,
2013-11-28 06:50:00,16.7,13.8,30.45,SW,228,1.0,3.0,88,0.00,,,0.00,0,Wunderground v.1.15,2013-11-28 11:50:00,
2013-11-28 06:56:00,16.8,13.6,30.46,SW,232,2.0,2.0,87,0.00,,,0.00,0,Wunderground v.1.15,2013-11-28 11:56:00,
2013-11-28 07:02:00,17.1,13.9,30.45,SW,223,2.0,2.0,87,0.00,,,0.00,0,Wunderground v.1.15,2013-11-28 12:02:00,
2013-11-28 07:08:00,17.1,13.6,30.46,SW,227,1.0,2.0,86,0.00,,,0.00,0,Wunderground v.1.15,2013-11-28 12:08:00,
2013-11-28 07:14:00,17.2,13.5,30.45,SW,230,2.0,2.0,85,0.00,,,0.00,0,Wunderground v.1.15,2013-11-28 12:14:00,
2013-11-28 07:20:00,17.1,13.4,30.46,SW,225,2.0,3.0,85,0.00,,,0.00,0,Wunderground v.1.15,2013-11-28 12:20:00,
2013-11-28 07:26:00,17.1,13.4,30.45,SW,228,2.0,2.0,85,0.00,,,0.00,0,Wunderground v.1.15,2013-11-28 12:26:00,
2013-11-28 07:32:00,17.1,13.6,30.47,SW,228,2.0,2.0,86,0.00,,,0.00,7,Wunderground v.1.15,2013-11-28 12:32:00,
2013-11-28 07:38:00,17.3,13.8,30.47,SW,228,1.0,2.0,86,0.00,,,0.00,9,Wunderground v.1.15,2013-11-28 12:38:00,
2013-11-28 07:44:00,17.5,13.8,30.47,SW,228,2.0,2.0,85,0.00,,,0.00,14,Wunderground v.1.15,2013-11-28 12:44:00,
2013-11-28 07:50:00,17.9,14.2,30.47,SW,228,2.0,2.0,85,0.00,,,0.00,21,Wunderground v.1.15,2013-11-28 12:50:00,
2013-11-28 07:56:00,18.5,14.5,30.48,SW,228,1.0,2.0,84,0.00,,,0.00,30,Wunderground v.1.15,2013-11-28 12:56:00,
2013-11-28 08:02:00,19.0,15.0,30.48,SW,230,1.0,2.0,84,0.00,,,0.00,35,Wunderground v.1.15,2013-11-28 13:02:00,
2013-11-28 08:08:00,19.4,14.8,30.48,WSW,237,3.0,4.0,82,0.00,,,0.00,26,Wunderground v.1.15,2013-11-28 13:08:00,
2013-11-28 08:14:00,19.5,14.9,30.48,SW,235,3.0,3.0,82,0.00,,,0.00,32,Wunderground v.1.15,2013-11-28 13:14:00,
2013-11-28 08:20:00,19.6,15.3,30.48,SW,234,2.0,3.0,83,0.00,,,0.00,39,Wunderground v.1.15,2013-11-28 13:20:00,
2013-11-28 08:26:00,19.7,15.4,30.48,SW,228,2.0,2.0,83,0.00,,,0.00,40,Wunderground v.1.15,2013-11-28 13:26:00,
2013-11-28 08:32:00,19.9,15.3,30.49,SW,233,2.0,2.0,82,0.00,,,0.00,54,Wunderground v.1.15,2013-11-28 13:32:00,
2013-11-28 08:38:00,20.3,15.7,30.49,WSW,238,2.0,3.0,82,0.00,,,0.00,63,Wunderground v.1.15,2013-11-28 13:38:00,
2013-11-28 08:44:00,20.6,15.4,30.49,WSW,238,2.0,4.0,80,0.00,,,0.00,83,Wunderground v.1.15,2013-11-28 13:44:00,
2013-11-28 08:50:00,21.1,15.9,30.49,WSW,238,2.0,4.0,80,0.00,,,0.00,144,Wunderground v.1.15,2013-11-28 13:50:00,
2013-11-28 08:56:00,21.5,16.0,30.48,SW,235,3.0,4.0,79,0.00,,,0.00,113,Wunderground v.1.15,2013-11-28 13:56:00,
2013-11-28 09:02:00,21.7,15.9,30.49,WSW,237,3.0,3.0,78,0.00,,,0.00,118,Wunderground v.1.15,2013-11-28 14:02:00,
2013-11-28 09:08:00,22.2,16.4,30.49,WSW,246,3.0,3.0,78,0.00,,,0.00,165,Wunderground v.1.15,2013-11-28 14:08:00,
2013-11-28 09:14:00,22.4,16.6,30.49,WSW,246,3.0,4.0,78,0.00,,,0.00,128,Wunderground v.1.15,2013-11-28 14:14:00,
2013-11-28 09:20:00,22.5,16.4,30.49,SW,234,3.0,5.0,77,0.00,,,0.00,114,Wunderground v.1.15,2013-11-28 14:20:00,
2013-11-28 09:26:00,22.9,16.5,30.49,WSW,250,3.0,3.0,76,0.00,,,0.00,330,Wunderground v.1.15,2013-11-28 14:26:00,
2013-11-28 09:32:00,23.5,16.4,30.49,SW,228,4.0,6.0,74,0.00,,,0.00,348,Wunderground v.1.15,2013-11-28 14:32:00,
2013-11-28 09:38:00,23.9,16.2,30.49,WSW,246,6.0,7.0,72,0.00,,,0.00,367,Wunderground v.1.15,2013-11-28 14:38:00,
2013-11-28 09:44:00,24.5,17.1,30.49,WSW,237,6.0,6.0,73,0.00,,,0.00,385,Wunderground v.1.15,2013-11-28 14:44:00,
2013-11-28 09:50:00,24.9,16.8,30.49,SW,220,6.0,7.0,71,0.00,,,0.00,394,Wunderground v.1.15,2013-11-28 14:50:00,
2013-11-28 09:56:00,25.3,16.5,30.48,SW,232,6.0,8.0,69,0.00,,,0.00,325,Wunderground v.1.15,2013-11-28 14:56:00,
2013-11-28 10:02:00,25.8,17.7,30.48,SW,221,6.0,6.0,71,0.00,,,0.00,399,Wunderground v.1.15,2013-11-28 15:02:00,
2013-11-28 10:08:00,25.9,17.5,30.48,SW,228,5.0,6.0,70,0.00,,,0.00,397,Wunderground v.1.15,2013-11-28 15:08:00,
2013-11-28 10:14:00,26.2,18.1,30.48,WSW,240,6.0,9.0,71,0.00,,,0.00,406,Wunderground v.1.15,2013-11-28 15:14:00,
2013-11-28 10:20:00,26.3,17.5,30.48,SW,216,6.0,9.0,69,0.00,,,0.00,418,Wunderground v.1.15,2013-11-28 15:20:00,
2013-11-28 10:26:00,26.8,17.6,30.48,SW,230,5.0,7.0,68,0.00,,,0.00,431,Wunderground v.1.15,2013-11-28 15:26:00,
2013-11-28 10:32:00,27.0,18.2,30.48,SW,234,6.0,9.0,69,0.00,,,0.00,443,Wunderground v.1.15,2013-11-28 15:32:00,
2013-11-28 10:38:00,27.2,19.0,30.48,WSW,240,6.0,9.0,71,0.00,,,0.00,452,Wunderground v.1.15,2013-11-28 15:38:00,
2013-11-28 10:44:00,27.6,19.1,30.48,SW,236,6.0,8.0,70,0.00,,,0.00,461,Wunderground v.1.15,2013-11-28 15:44:00,
2013-11-28 10:50:00,28.0,19.5,30.48,WSW,246,6.0,8.0,70,0.00,,,0.00,471,Wunderground v.1.15,2013-11-28 15:50:00,
2013-11-28 10:56:00,28.2,19.3,30.48,SW,228,6.0,10.0,69,0.00,,,0.00,480,Wunderground v.1.15,2013-11-28 15:56:00,
2013-11-28 11:01:00,28.7,20.1,30.48,WSW,250,6.0,6.0,70,0.00,,,0.00,487,Wunderground v.1.15,2013-11-28 16:01:00,
2013-11-28 11:08:00,28.8,20.2,30.47,SW,235,6.0,6.0,70,0.00,,,0.00,497,Wunderground v.1.15,2013-11-28 16:08:00,
2013-11-28 11:14:00,29.2,20.6,30.47,SW,234,5.0,8.0,70,0.00,,,0.00,504,Wunderground v.1.15,2013-11-28 16:14:00,
2013-11-28 11:20:00,29.0,19.8,30.47,SW,234,6.0,8.0,68,0.00,,,0.00,510,Wunderground v.1.15,2013-11-28 16:20:00,
2013-11-28 11:26:00,29.4,20.8,30.46,SW,215,6.0,8.0,70,0.00,,,0.00,519,Wunderground v.1.15,2013-11-28 16:26:00,
2013-11-28 11:32:00,29.7,20.8,30.46,WSW,247,6.0,6.0,69,0.00,,,0.00,526,Wunderground v.1.15,2013-11-28 16:32:00,
2013-11-28 11:38:00,30.1,22.2,30.46,West,267,6.0,7.0,72,0.00,,,0.00,529,Wunderground v.1.15,2013-11-28 16:38:00,
2013-11-28 11:44:00,30.2,21.2,30.45,WSW,252,6.0,8.0,69,0.00,,,0.00,533,Wunderground v.1.15,2013-11-28 16:44:00,
2013-11-28 11:50:00,30.4,21.4,30.45,WSW,238,6.0,8.0,69,0.00,,,0.00,538,Wunderground v.1.15,2013-11-28 16:50:00,
2013-11-28 11:56:00,30.5,20.8,30.45,West,271,6.0,7.0,67,0.00,,,0.00,540,Wunderground v.1.15,2013-11-28 16:56:00,
2013-11-28 12:02:00,30.8,20.8,30.44,WSW,247,6.0,9.0,66,0.00,,,0.00,545,Wunderground v.1.15,2013-11-28 17:02:00,
2013-11-28 12:08:00,31.0,21.0,30.44,SSW,210,7.0,9.0,66,0.00,,,0.00,545,Wunderground v.1.15,2013-11-28 17:08:00,
2013-11-28 12:14:00,31.4,21.7,30.44,SSW,209,5.0,6.0,67,0.00,,,0.00,548,Wunderground v.1.15,2013-11-28 17:14:00,
2013-11-28 12:20:00,31.7,22.0,30.44,SW,236,5.0,6.0,67,0.00,,,0.00,550,Wunderground v.1.15,2013-11-28 17:20:00,
2013-11-28 12:26:00,32.3,21.8,30.43,West,260,5.0,7.0,65,0.00,,,0.00,550,Wunderground v.1.15,2013-11-28 17:26:00,
2013-11-28 12:32:00,32.5,22.4,30.43,SW,236,5.0,7.0,66,0.00,,,0.00,548,Wunderground v.1.15,2013-11-28 17:32:00,
2013-11-28 12:38:00,32.7,21.9,30.42,West,263,5.0,8.0,64,0.00,,,0.00,548,Wunderground v.1.15,2013-11-28 17:38:00,
2013-11-28 12:44:00,32.5,22.4,30.42,WSW,252,6.0,7.0,66,0.00,,,0.00,548,Wunderground v.1.15,2013-11-28 17:44:00,
2013-11-28 12:50:00,33.1,22.2,30.42,WSW,240,6.0,7.0,64,0.00,,,0.00,545,Wunderground v.1.15,2013-11-28 17:50:00,
2013-11-28 12:56:00,33.0,21.4,30.42,WSW,252,6.0,8.0,62,0.00,,,0.00,540,Wunderground v.1.15,2013-11-28 17:56:00,
2013-11-28 13:02:00,33.0,20.6,30.41,SW,232,6.0,10.0,60,0.00,,,0.00,540,Wunderground v.1.15,2013-11-28 18:02:00,
2013-11-28 13:08:00,33.3,22.1,30.41,WSW,254,7.0,10.0,63,0.00,,,0.00,534,Wunderground v.1.15,2013-11-28 18:08:00,
2013-11-28 13:14:00,34.3,21.8,30.40,SW,233,5.0,6.0,60,0.00,,,0.00,529,Wunderground v.1.15,2013-11-28 18:14:00,
2013-11-28 13:19:00,34.3,22.2,30.39,SW,227,5.0,6.0,61,0.00,,,0.00,524,Wunderground v.1.15,2013-11-28 18:19:00,
2013-11-28 13:26:00,34.6,21.7,30.39,WSW,247,7.0,16.0,59,0.00,,,0.00,519,Wunderground v.1.15,2013-11-28 18:26:00,
2013-11-28 13:32:00,34.5,21.6,30.38,SW,230,7.0,7.0,59,0.00,,,0.00,512,Wunderground v.1.15,2013-11-28 18:32:00,
2013-11-28 13:38:00,35.1,21.8,30.37,WSW,243,6.0,7.0,58,0.00,,,0.00,508,Wunderground v.1.15,2013-11-28 18:38:00,
2013-11-28 13:44:00,35.1,21.4,30.37,South,181,6.0,10.0,57,0.00,,,0.00,501,Wunderground v.1.15,2013-11-28 18:44:00,
2013-11-28 13:50:00,35.4,22.5,30.37,West,269,7.0,10.0,59,0.00,,,0.00,490,Wunderground v.1.15,2013-11-28 18:50:00,
2013-11-28 13:56:00,35.7,21.5,30.37,SW,231,7.0,7.0,56,0.00,,,0.00,483,Wunderground v.1.15,2013-11-28 18:56:00,
2013-11-28 14:01:00,35.5,22.2,30.37,SSW,192,7.0,7.0,58,0.00,,,0.00,475,Wunderground v.1.15,2013-11-28 19:01:00,
2013-11-28 14:08:00,35.6,22.3,30.36,WSW,238,7.0,7.0,58,0.00,,,0.00,464,Wunderground v.1.15,2013-11-28 19:08:00,
2013-11-28 14:14:00,36.1,21.9,30.36,SSW,202,6.0,7.0,56,0.00,,,0.00,452,Wunderground v.1.15,2013-11-28 19:14:00,
2013-11-28 14:20:00,36.2,22.0,30.36,West,263,6.0,8.0,56,0.00,,,0.00,441,Wunderground v.1.15,2013-11-28 19:20:00,
2013-11-28 14:26:00,36.3,22.1,30.36,SW,231,7.0,7.0,56,0.00,,,0.00,427,Wunderground v.1.15,2013-11-28 19:26:00,
2013-11-28 14:32:00,36.7,23.3,30.35,SW,214,6.0,10.0,58,0.00,,,0.00,417,Wunderground v.1.15,2013-11-28 19:32:00,
2013-11-28 14:38:00,36.5,23.1,30.35,SSW,213,6.0,10.0,58,0.00,,,0.00,404,Wunderground v.1.15,2013-11-28 19:38:00,
2013-11-28 14:44:00,36.7,23.7,30.35,SSW,205,6.0,7.0,59,0.00,,,0.00,394,Wunderground v.1.15,2013-11-28 19:44:00,
2013-11-28 14:50:00,36.5,22.3,30.36,SW,222,7.0,12.0,56,0.00,,,0.00,381,Wunderground v.1.15,2013-11-28 19:50:00,
2013-11-28 14:56:00,37.2,22.9,30.35,SW,214,8.0,8.0,56,0.00,,,0.00,366,Wunderground v.1.15,2013-11-28 19:56:00,
2013-11-28 15:02:00,37.3,21.7,30.35,SW,215,6.0,6.0,53,0.00,,,0.00,352,Wunderground v.1.15,2013-11-28 20:02:00,
2013-11-28 15:08:00,37.0,21.4,30.35,WSW,242,8.0,8.0,53,0.00,,,0.00,339,Wunderground v.1.15,2013-11-28 20:08:00,
2013-11-28 15:14:00,37.3,21.7,30.35,SW,223,8.0,11.0,53,0.00,,,0.00,322,Wunderground v.1.15,2013-11-28 20:14:00,
2013-11-28 15:20:00,37.4,21.8,30.35,SSE,167,8.0,11.0,53,0.00,,,0.00,306,Wunderground v.1.15,2013-11-28 20:20:00,
2013-11-28 15:26:00,37.5,21.9,30.35,SW,233,8.0,9.0,53,0.00,,,0.00,290,Wunderground v.1.15,2013-11-28 20:26:00,
2013-11-28 15:32:00,37.6,21.5,30.36,SSW,213,7.0,9.0,52,0.00,,,0.00,274,Wunderground v.1.15,2013-11-28 20:32:00,
2013-11-28 15:38:00,37.7,21.6,30.36,SW,232,7.0,9.0,52,0.00,,,0.00,255,Wunderground v.1.15,2013-11-28 20:38:00,
2013-11-28 15:44:00,37.8,21.7,30.36,West,262,7.0,8.0,52,0.00,,,0.00,237,Wunderground v.1.15,2013-11-28 20:44:00,
2013-11-28 15:50:00,37.9,21.4,30.36,WSW,247,8.0,11.0,51,0.00,,,0.00,216,Wunderground v.1.15,2013-11-28 20:50:00,
2013-11-28 15:56:00,38.0,21.9,30.36,SW,227,7.0,9.0,52,0.00,,,0.00,197,Wunderground v.1.15,2013-11-28 20:56:00,
2013-11-28 16:02:00,38.2,21.6,30.36,WSW,241,5.0,5.0,51,0.00,,,0.00,176,Wunderground v.1.15,2013-11-28 21:02:00,
2013-11-28 16:08:00,38.2,20.7,30.36,WSW,250,6.0,10.0,49,0.00,,,0.00,155,Wunderground v.1.15,2013-11-28 21:08:00,
2013-11-28 16:14:00,38.1,20.6,30.36,West,274,8.0,8.0,49,0.00,,,0.00,135,Wunderground v.1.15,2013-11-28 21:14:00,
2013-11-28 16:20:00,38.1,20.6,30.37,WSW,246,6.0,11.0,49,0.00,,,0.00,116,Wunderground v.1.15,2013-11-28 21:20:00,
2013-11-28 16:26:00,37.9,19.9,30.37,WSW,254,7.0,8.0,48,0.00,,,0.00,98,Wunderground v.1.15,2013-11-28 21:26:00,
2013-11-28 16:32:00,37.8,19.8,30.37,West,270,6.0,6.0,48,0.00,,,0.00,81,Wunderground v.1.15,2013-11-28 21:32:00,
2013-11-28 16:38:00,37.7,20.2,30.38,West,275,6.0,6.0,49,0.00,,,0.00,63,Wunderground v.1.15,2013-11-28 21:38:00,
2013-11-28 16:44:00,37.5,20.1,30.38,West,262,5.0,6.0,49,0.00,,,0.00,49,Wunderground v.1.15,2013-11-28 21:44:00,
2013-11-28 16:50:00,37.2,20.2,30.38,West,270,5.0,9.0,50,0.00,,,0.00,35,Wunderground v.1.15,2013-11-28 21:50:00,
2013-11-28 16:56:00,37.0,20.1,30.38,West,264,6.0,6.0,50,0.00,,,0.00,23,Wunderground v.1.15,2013-11-28 21:56:00,
2013-11-28 17:01:00,36.7,20.3,30.37,West,264,4.0,4.0,51,0.00,,,0.00,14,Wunderground v.1.15,2013-11-28 22:01:00,
2013-11-28 17:08:00,36.4,20.4,30.37,West,261,5.0,5.0,52,0.00,,,0.00,12,Wunderground v.1.15,2013-11-28 22:08:00,
2013-11-28 17:14:00,36.1,20.6,30.38,WSW,257,4.0,6.0,53,0.00,,,0.00,9,Wunderground v.1.15,2013-11-28 22:14:00,
2013-11-28 17:20:00,35.9,20.4,30.38,WSW,240,3.0,6.0,53,0.00,,,0.00,5,Wunderground v.1.15,2013-11-28 22:20:00,
2013-11-28 17:26:00,35.7,20.7,30.38,WSW,246,3.0,5.0,54,0.00,,,0.00,0,Wunderground v.1.15,2013-11-28 22:26:00,
2013-11-28 17:32:00,35.5,20.5,30.38,WSW,246,3.0,3.0,54,0.00,,,0.00,0,Wunderground v.1.15,2013-11-28 22:32:00,
2013-11-28 17:38:00,35.2,20.6,30.38,WSW,246,3.0,3.0,55,0.00,,,0.00,0,Wunderground v.1.15,2013-11-28 22:38:00,
2013-11-28 17:44:00,35.0,20.4,30.39,WSW,246,3.0,3.0,55,0.00,,,0.00,0,Wunderground v.1.15,2013-11-28 22:44:00,
2013-11-28 17:50:00,34.8,20.7,30.39,WSW,246,2.0,3.0,56,0.00,,,0.00,0,Wunderground v.1.15,2013-11-28 22:50:00,
2013-11-28 17:56:00,34.2,20.5,30.38,SW,217,2.0,3.0,57,0.00,,,0.00,0,Wunderground v.1.15,2013-11-28 22:56:00,
2013-11-28 18:02:00,33.7,20.5,30.38,SW,234,2.0,3.0,58,0.00,,,0.00,0,Wunderground v.1.15,2013-11-28 23:02:00,
2013-11-28 18:08:00,33.8,20.6,30.39,SW,235,3.0,4.0,58,0.00,,,0.00,0,Wunderground v.1.15,2013-11-28 23:08:00,
2013-11-28 18:14:00,34.0,20.8,30.39,WSW,240,4.0,4.0,58,0.00,,,0.00,0,Wunderground v.1.15,2013-11-28 23:14:00,
2013-11-28 18:20:00,33.9,20.7,30.39,WSW,238,4.0,4.0,58,0.00,,,0.00,0,Wunderground v.1.15,2013-11-28 23:20:00,
2013-11-28 18:26:00,33.9,20.7,30.40,WSW,251,4.0,4.0,58,0.00,,,0.00,0,Wunderground v.1.15,2013-11-28 23:26:00,
2013-11-28 18:32:00,33.9,20.7,30.40,West,268,4.0,4.0,58,0.00,,,0.00,0,Wunderground v.1.15,2013-11-28 23:32:00,
2013-11-28 18:38:00,33.7,20.9,30.41,West,269,3.0,4.0,59,0.00,,,0.00,0,Wunderground v.1.15,2013-11-28 23:38:00,
2013-11-28 18:44:00,33.4,20.6,30.41,West,269,2.0,3.0,59,0.00,,,0.00,0,Wunderground v.1.15,2013-11-28 23:44:00,
2013-11-28 18:50:00,33.2,20.8,30.42,West,269,1.0,3.0,60,0.00,,,0.00,0,Wunderground v.1.15,2013-11-28 23:50:00,
2013-11-28 18:56:00,33.0,20.2,30.42,West,269,1.0,3.0,59,0.00,,,0.00,0,Wunderground v.1.15,2013-11-28 23:56:00,
2013-11-28 19:02:00,33.0,20.2,30.42,West,269,2.0,2.0,59,0.00,,,0.00,0,Wunderground v.1.15,2013-11-29 00:02:00,
2013-11-28 19:08:00,32.9,20.5,30.43,West,269,2.0,2.0,60,0.00,,,0.00,0,Wunderground v.1.15,2013-11-29 00:08:00,
2013-11-28 19:14:00,32.8,20.0,30.43,West,269,2.0,2.0,59,0.00,,,0.00,0,Wunderground v.1.15,2013-11-29 00:14:00,
2013-11-28 19:20:00,32.8,20.0,30.43,West,269,2.0,2.0,59,0.00,,,0.00,0,Wunderground v.1.15,2013-11-29 00:20:00,
2013-11-28 19:26:00,32.6,20.6,30.44,West,269,1.0,1.0,61,0.00,,,0.00,0,Wunderground v.1.15,2013-11-29 00:26:00,
2013-11-28 19:32:00,32.1,20.2,30.44,West,269,0.0,0.0,61,0.00,,,0.00,0,Wunderground v.1.15,2013-11-29 00:32:00,
2013-11-28 19:38:00,31.9,20.3,30.44,West,269,0.0,0.0,62,0.00,,,0.00,0,Wunderground v.1.15,2013-11-29 00:38:00,
2013-11-28 19:44:00,31.9,20.0,30.45,West,269,0.0,0.0,61,0.00,,,0.00,0,Wunderground v.1.15,2013-11-29 00:44:00,
2013-11-28 19:50:00,32.0,20.1,30.45,West,269,0.0,0.0,61,0.00,,,0.00,0,Wunderground v.1.15,2013-11-29 00:50:00,
2013-11-28 19:56:00,31.9,20.0,30.45,West,269,0.0,0.0,61,0.00,,,0.00,0,Wunderground v.1.15,2013-11-29 00:56:00,
2013-11-28 20:02:00,31.7,19.8,30.45,West,269,0.0,0.0,61,0.00,,,0.00,0,Wunderground v.1.15,2013-11-29 01:02:00,
2013-11-28 20:08:00,31.7,19.8,30.46,West,269,1.0,1.0,61,0.00,,,0.00,0,Wunderground v.1.15,2013-11-29 01:08:00,
2013-11-28 20:13:00,31.6,20.1,30.46,West,269,1.0,1.0,62,0.00,,,0.00,0,Wunderground v.1.15,2013-11-29 01:13:00,
2013-11-28 20:20:00,31.3,20.2,30.46,West,269,1.0,1.0,63,0.00,,,0.00,0,Wunderground v.1.15,2013-11-29 01:20:00,
2013-11-28 20:26:00,31.0,20.2,30.46,West,269,0.0,1.0,64,0.00,,,0.00,0,Wunderground v.1.15,2013-11-29 01:26:00,
2013-11-28 20:32:00,30.5,20.5,30.46,West,269,0.0,0.0,66,0.00,,,0.00,0,Wunderground v.1.15,2013-11-29 01:32:00,
2013-11-28 20:38:00,30.1,20.5,30.46,West,269,0.0,0.0,67,0.00,,,0.00,0,Wunderground v.1.15,2013-11-29 01:38:00,
2013-11-28 20:44:00,29.9,20.6,30.47,West,269,0.0,1.0,68,0.00,,,0.00,0,Wunderground v.1.15,2013-11-29 01:44:00,
2013-11-28 20:49:00,29.5,20.6,30.47,West,269,0.0,1.0,69,0.00,,,0.00,0,Wunderground v.1.15,2013-11-29 01:49:00,
2013-11-28 20:56:00,29.0,20.4,30.47,West,269,1.0,1.0,70,0.00,,,0.00,0,Wunderground v.1.15,2013-11-29 01:56:00,
2013-11-28 21:02:00,28.3,20.4,30.47,West,269,1.0,1.0,72,0.00,,,0.00,0,Wunderground v.1.15,2013-11-29 02:02:00,
2013-11-28 21:08:00,27.8,20.6,30.47,West,269,1.0,2.0,74,0.00,,,0.00,0,Wunderground v.1.15,2013-11-29 02:08:00,
2013-11-28 21:14:00,27.5,20.6,30.47,West,269,2.0,2.0,75,0.00,,,0.00,0,Wunderground v.1.15,2013-11-29 02:14:00,
2013-11-28 21:20:00,27.4,20.5,30.47,West,269,1.0,2.0,75,0.00,,,0.00,0,Wunderground v.1.15,2013-11-29 02:20:00,
2013-11-28 21:26:00,27.5,20.9,30.48,West,269,2.0,2.0,76,0.00,,,0.00,0,Wunderground v.1.15,2013-11-29 02:26:00,
2013-11-28 21:32:00,27.6,20.7,30.48,West,269,2.0,2.0,75,0.00,,,0.00,0,Wunderground v.1.15,2013-11-29 02:32:00,
2013-11-28 21:38:00,27.5,20.9,30.48,West,269,1.0,2.0,76,0.00,,,0.00,0,Wunderground v.1.15,2013-11-29 02:38:00,
2013-11-28 21:44:00,27.6,21.0,30.48,West,269,1.0,2.0,76,0.00,,,0.00,0,Wunderground v.1.15,2013-11-29 02:44:00,
2013-11-28 21:50:00,27.9,21.0,30.48,West,269,1.0,2.0,75,0.00,,,0.00,0,Wunderground v.1.15,2013-11-29 02:50:00,
2013-11-28 21:56:00,28.1,20.9,30.48,West,269,1.0,2.0,74,0.00,,,0.00,0,Wunderground v.1.15,2013-11-29 02:56:00,
2013-11-28 22:02:00,28.1,20.9,30.48,West,269,1.0,1.0,74,0.00,,,0.00,0,Wunderground v.1.15,2013-11-29 03:02:00,
2013-11-28 22:08:00,27.8,20.9,30.49,West,269,0.0,1.0,75,0.00,,,0.00,0,Wunderground v.1.15,2013-11-29 03:08:00,
2013-11-28 22:14:00,27.0,20.4,30.49,West,269,0.0,0.0,76,0.00,,,0.00,0,Wunderground v.1.15,2013-11-29 03:14:00,
2013-11-28 22:20:00,26.4,20.5,30.49,West,269,0.0,0.0,78,0.00,,,0.00,0,Wunderground v.1.15,2013-11-29 03:20:00,
2013-11-28 22:26:00,26.6,20.7,30.49,West,269,0.0,1.0,78,0.00,,,0.00,0,Wunderground v.1.15,2013-11-29 03:26:00,
2013-11-28 22:32:00,27.1,20.8,30.49,West,269,1.0,1.0,77,0.00,,,0.00,0,Wunderground v.1.15,2013-11-29 03:32:00,
2013-11-28 22:38:00,27.6,20.7,30.49,West,269,1.0,1.0,75,0.00,,,0.00,0,Wunderground v.1.15,2013-11-29 03:38:00,
2013-11-28 22:44:00,27.8,20.9,30.50,West,269,1.0,2.0,75,0.00,,,0.00,0,Wunderground v.1.15,2013-11-29 03:44:00,
2013-11-28 22:50:00,27.8,20.6,30.50,West,269,1.0,2.0,74,0.00,,,0.00,0,Wunderground v.1.15,2013-11-29 03:50:00,
2013-11-28 22:56:00,27.7,20.5,30.50,West,269,1.0,1.0,74,0.00,,,0.00,0,Wunderground v.1.15,2013-11-29 03:56:00,
2013-11-28 23:02:00,27.6,20.4,30.50,West,269,1.0,1.0,74,0.00,,,0.00,0,Wunderground v.1.15,2013-11-29 04:02:00,
2013-11-28 23:08:00,27.5,20.0,30.50,West,269,1.0,2.0,73,0.00,,,0.00,0,Wunderground v.1.15,2013-11-29 04:08:00,
2013-11-28 23:14:00,27.1,19.9,30.50,West,269,1.0,2.0,74,0.00,,,0.00,0,Wunderground v.1.15,2013-11-29 04:14:00,
2013-11-28 23:20:00,26.0,19.8,30.50,West,269,2.0,3.0,77,0.00,,,0.00,0,Wunderground v.1.15,2013-11-29 04:20:00,
2013-11-28 23:25:00,25.6,20.0,30.50,West,269,2.0,3.0,79,0.00,,,0.00,0,Wunderground v.1.15,2013-11-29 04:25:00,
2013-11-28 23:32:00,25.5,19.9,30.50,West,269,2.0,2.0,79,0.00,,,0.00,0,Wunderground v.1.15,2013-11-29 04:32:00,
2013-11-28 23:38:00,25.6,20.3,30.50,West,269,2.0,2.0,80,0.00,,,0.00,0,Wunderground v.1.15,2013-11-29 04:38:00,
2013-11-28 23:44:00,25.6,20.3,30.50,West,269,2.0,2.0,80,0.00,,,0.00,0,Wunderground v.1.15,2013-11-29 04:44:00,
2013-11-28 23:50:00,25.6,20.3,30.50,West,269,2.0,3.0,80,0.00,,,0.00,0,Wunderground v.1.15,2013-11-29 04:50:00,
2013-11-28 23:56:00,25.6,20.3,30.50,West,269,2.0,2.0,80,0.00,,,0.00,0,Wunderground v.1.15,2013-11-29 04:56:00,